Change the Weather History Date:

Thursday, September 12, 2013

  Actual Average Record
Temperature  
Mean Temperature 79 °F 75 °F  
Max Temperature 94 °F 92 °F 106 °F (1971)
Min Temperature 64 °F 58 °F 40 °F (1985)
Degree Days  
Heating Degree Days 0 0  
Month to date heating degree days 0 0  
Since 1 July heating degree days 0 0  
Cooling Degree Days 14 10  
Month to date cooling degree days 220 141  
Year to date cooling degree days 1985 1623  
Growing Degree Days 28 (Base 50)    
Moisture  
Dew Point 33 °F    
Average Humidity 25    
Maximum Humidity 42    
Minimum Humidity 7    
Precipitation  
Precipitation 0.00 in 0.01 in 0.18 in (1963)
Month to date precipitation 0.00 0.09  
Year to date precipitation 0.99 5.65  
Since 1 July precipitation 0.13 0.33  
Snow  
Snow 0.00 in - 0.00 in (1973)
Month to date snowfall 0.0  
Since 1 July snowfall 0.0  
Since 1 September snowfall 0.0  
Snow Depth 0.00 in    
Sea Level Pressure  
Sea Level Pressure 29.86 in    
Wind  
Wind Speed 10 mph (SW)    
Max Wind Speed 22 mph    
Max Gust Speed 26 mph    
Visibility 10 miles    
Events      
T = Trace of Precipitation, MM = Missing Value Source: NWS Daily Summary

Daily Weather History Graph

Daily Weather History Graph

Search for Another Location

Airport or City:

Trip Planner

Search our weather history database for the weather conditions in past years. The results will help you decide how hot, cold, wet, or windy it might be!

Date:

Astronomy

Sep. 12, 2013 Rise Set
Actual Time 6:33 AM PDT 7:02 PM PDT
Civil Twilight 6:08 AM PDT 7:28 PM PDT
Nautical Twilight 5:38 AM PDT 7:57 PM PDT
Astronomical Twilight 5:08 AM PDT 8:28 PM PDT
Moon 1:49 PM PDT (9/12) No Moon Set
Length of Visible Light 13h 20m
Length of Day
12h 29m
Waxing Crescent, 51% of the Moon is Illuminated
Sep 12
Waxing Crescent
Sep 19
Full
Sep 26
Last Quarter
Oct 4
New
Oct 11
First Quarter

Hourly Weather History & Observations

Time (PDT) Temp. Dew Point Humidity Pressure Visibility Wind Dir Wind Speed Gust Speed Precip Events Conditions
12:53 AM 75.0 °F 30.9 °F 20% 29.88 in 10.0 mi Calm Calm - N/A   Clear
1:53 AM 70.0 °F 33.1 °F 26% 29.88 in 10.0 mi Calm Calm - N/A   Clear
2:53 AM 68.0 °F 30.0 °F 24% 29.87 in 10.0 mi Calm Calm - N/A   Clear
3:53 AM 68.0 °F 28.0 °F 22% 29.87 in 10.0 mi SSW 3.5 mph - N/A   Clear
4:53 AM 64.0 °F 30.9 °F 29% 29.89 in 10.0 mi SSW 9.2 mph - N/A   Clear
5:53 AM 66.9 °F 37.9 °F 34% 29.89 in 10.0 mi South 12.7 mph - N/A   Clear
6:53 AM 66.0 °F 42.1 °F 42% 29.91 in 10.0 mi SSW 6.9 mph - N/A   Clear
7:53 AM 73.0 °F 37.0 °F 27% 29.91 in 10.0 mi South 10.4 mph - N/A   Clear
8:53 AM 80.1 °F 37.0 °F 21% 29.90 in 10.0 mi SSW 11.5 mph - N/A   Clear
9:53 AM 84.0 °F 35.1 °F 17% 29.90 in 10.0 mi West 6.9 mph - N/A   Clear
10:53 AM 86.0 °F 35.1 °F 16% 29.90 in 10.0 mi WNW 8.1 mph - N/A   Clear
11:53 AM 89.1 °F 35.1 °F 15% 29.88 in 10.0 mi Variable 5.8 mph - N/A   Clear
12:53 PM 91.9 °F 19.9 °F 7% 29.86 in 10.0 mi WSW 13.8 mph 18.4 mph N/A   Clear
1:53 PM 91.9 °F 21.9 °F 8% 29.84 in 10.0 mi WSW 16.1 mph 23.0 mph N/A   Clear
2:53 PM 93.0 °F 19.9 °F 7% 29.82 in 10.0 mi SW 17.3 mph 21.9 mph N/A   Clear
3:53 PM 93.0 °F 21.0 °F 7% 29.81 in 10.0 mi SW 19.6 mph 24.2 mph N/A   Clear
4:53 PM 91.0 °F 24.1 °F 9% 29.81 in 10.0 mi WSW 15.0 mph - N/A   Clear
5:53 PM 88.0 °F 32.0 °F 14% 29.81 in 10.0 mi SW 18.4 mph - N/A   Clear
6:53 PM 84.0 °F 37.9 °F 19% 29.82 in 10.0 mi SW 15.0 mph - N/A   Clear
7:53 PM 80.1 °F 43.0 °F 27% 29.83 in 10.0 mi West 13.8 mph - N/A   Clear
8:53 PM 78.1 °F 42.1 °F 28% 29.84 in 10.0 mi West 4.6 mph - N/A   Clear
9:53 PM 78.1 °F 39.9 °F 25% 29.84 in 10.0 mi SW 9.2 mph - N/A   Clear
10:53 PM 73.9 °F 37.0 °F 26% 29.85 in 10.0 mi Calm Calm - N/A   Clear
11:53 PM 72.0 °F 37.0 °F 28% 29.84 in 10.0 mi SW 9.2 mph - N/A   Clear